sat.trackr.live / text

‹ back to catalog

STARLINK-6236

NORAD 56422 · 2023-061BA

PAYLOAD ACTIVE UNKNOWN

§ Identity

Operator
Country
US
Launch date
2023-05-04
Launch site
AFETR
Launch vehicle
Mass (kg)
RCS (m²)

Purposes: comms

External: N2YO · Heavens-Above · Gunter

§ Orbital elements

Epoch: 2026-09-20T10:37:20.241696Z

Period
94.27 min
Inclination
43.0035°
Eccentricity
0.0001532
Mean motion
15.27574426 rev/d
Perigee alt
482.0 km
Apogee alt
484.1 km
Semi-major
6,861.2 km
B*
-3.0334e-6
RAAN
159.7758°
Arg perigee
264.4336°
Mean anomaly
95.6341°
Rev number
18,674

§ Raw data

STARLINK-62361 56422U 23061BA  26263.44259539 -.00000346  00000+0 -30334-5 0  99932 56422  43.0035 159.7758 0001532 264.4336  95.6341 15.27574426186744

JSON: /api/v1/satellites/56422 · /tle

For live sub-satellite position, see the globe view (requires WebGL).

§ Visibility from observer

Set your observer location to see the next 7 days of passes ≥ 10°. The values pass through the URL so the page stays shareable.

No JS? Fill the form by hand. The geolocation button needs JavaScript.